Content
SEND FEEDBACK

Daily
Averages
Monthly
Summary
United States of America

SEELEY, CALIFORNIA


Home > North America > United States > California
Elevation: -5 feet     Latitude: 32 47N     Longitude: 115 34W

WEATHER
 
SELECT A DAY
Number of Records: 169,088;   Date Range: 1/1/95 - 10/19/14
 
SHARE

PRINT THIS DATA

[ ← Previous Day ]
WEATHER ALMANAC - FEBRUARY 13, 2013
[ Next Day → ]
[ °C ]   °F
Weather ElementAverageHighLow
Temperature53.9 °F71.1 °F (1:53 pm)37 °F (1:53 am)
Dewpoint21.7 °F32 °F (8:53 am)16 °F (1:53 pm)
Humidity32.6 %50 % (1:53 am)12 % (1:53 pm)
Barometer30.17 in30.25 in (7:53 am)30.09 in (5:53 pm)
Wind Speed3.8 mph6.9 mph (2:53 am)
Weather ElementAverage
Visibility10 mi
Wind DirectionS (180.9 °)

Weather ElementTotal
Precipitation---
Heating Degree Days11 (Base 65)
Growing Degree Days4.1 (Base 50)
Averaged from 23 records on February 13, 2013
WEATHER CONDITIONS BREAKOUT
WIND DIRECTION BREAKOUT
WEATHER BY HOUR - FEBRUARY 13, 2013
[ °C ]   °F
Local TimeTemperatureDewpointHumidityBarometerVisibilityWind DirectionWind SpeedGust SpeedPrecipitationEventsConditions
1:53 AM37.0 °F19.9 °F50 %30.22 in10.0 miWSW (250°)5.8 mphClear
2:53 AM37.0 °F19.9 °F50 %30.21 in10.0 miWest (260°)6.9 mphClear
3:53 AM37.0 °F19.9 °F50 %30.21 in10.0 miWest (270°)5.8 mphClear
4:53 AM37.0 °F19.0 °F48 %30.21 in10.0 miWSW (250°)4.6 mphClear
5:53 AM37.0 °F19.9 °F50 %30.22 in10.0 miWSW (250°)3.5 mphClear
6:53 AM37.0 °F19.9 °F50 %30.24 in10.0 miWSW (250°)3.5 mphClear
7:53 AM44.1 °F26.1 °F49 %30.25 in10.0 miWest (260°)3.5 mphClear
8:53 AM53.1 °F32.0 °F45 %30.25 in10.0 miCalmClear
9:53 AM60.1 °F28.0 °F30 %30.24 in10.0 miWSW (250°)3.5 mphClear
10:53 AM64.9 °F18.0 °F16 %30.23 in10.0 miCalmClear
11:53 AM66.9 °F19.9 °F17 %30.20 in10.0 miVariable3.5 mphClear
12:53 PM70.0 °F17.1 °F13 %30.17 in10.0 miVariable5.8 mphClear
1:53 PM71.1 °F16.0 °F12 %30.14 in10.0 miNorth (350°)6.9 mphClear
2:53 PM70.0 °F17.1 °F13 %30.12 in10.0 miNNW (330°)4.6 mphClear
3:53 PM70.0 °F19.0 °F14 %30.11 in10.0 miVariable3.5 mphClear
4:53 PM69.1 °F18.0 °F14 %30.10 in10.0 miCalmClear
5:53 PM62.1 °F21.0 °F21 %30.09 in10.0 miCalmClear
6:53 PM60.1 °F21.9 °F23 %30.10 in10.0 miSW (230°)3.5 mphClear
7:53 PM57.9 °F24.1 °F27 %30.11 in10.0 miSouth (180°)3.5 mphClear
8:53 PM50.0 °F27.0 °F41 %30.11 in10.0 miWest (270°)5.8 mphClear
9:53 PM50.0 °F27.0 °F41 %30.12 in10.0 miSW (230°)4.6 mphClear
10:53 PM51.1 °F25.0 °F36 %30.12 in10.0 miWSW (240°)4.6 mphClear
11:53 PM48.0 °F24.1 °F39 %30.12 in10.0 miWNW (290°)3.5 mphClear
Hourly data recorded from KIPL, located miles away from Seeley, California







STORIES FROM OUR PARTNERS